Printer-friendly version

IAU Minor Planet Center

Minor Planet Center

MPEC 2008-T111: 2008 TV25

The following Minor Planet Electronic Circular may be linked-to from your own Web pages, but must not otherwise be redistributed electronically.


Read MPEC 2008-T110 Read MPEC 2008-T112


M.P.E.C. 2008-T111                               Issued 2008 Oct. 10, 03:04 UT

     The Minor Planet Electronic Circulars contain information on unusual
         minor planets and routine data on comets.  They are published
   on behalf of Commission 20 of the International Astronomical Union by the
          Minor Planet Center, Smithsonian Astrophysical Observatory,
                          Cambridge, MA 02138, U.S.A.

             Prepared using the Tamkin Foundation Computer Network

                              MPC@CFA.HARVARD.EDU
          URL http://www.cfa.harvard.edu/iau/mpc.html  ISSN 1523-6714

                                   2008 TV25

Observations:
     K08T25V* C2008 10 09.43394 03 56 01.86 -04 33 46.4          19.4 V ET111703
     K08T25V  C2008 10 09.44230 03 56 03.73 -04 34 06.9          19.0 V ET111703
     K08T25V  C2008 10 09.45051 03 56 05.60 -04 34 25.0          18.8 V ET111703
     K08T25V  C2008 10 09.45889 03 56 07.47 -04 34 45.1          19.5 V ET111703
     K08T25V  C2008 10 09.48369 03 56 12.98 -04 35 45.6          18.9 V ET111703
     K08T25V  C2008 10 09.48924 03 56 14.24 -04 35 57.6          19.2 V ET111703
     K08T25V  C2008 10 09.49474 03 56 15.50 -04 36 11.2          19.0 V ET111703
     K08T25V  C2008 10 09.50032 03 56 16.72 -04 36 24.5          19.2 V ET111703
     K08T25V  C2008 10 09.51117 03 56 19.12 -04 36 51.5          18.6 R ET111H01
     K08T25V  C2008 10 09.51206 03 56 19.33 -04 36 53.7          18.4 R ET111H01
     K08T25V  C2008 10 09.51299 03 56 19.54 -04 36 55.8          19.1 R ET111H01
     K08T25V  C2008 10 09.51492 03 56 19.97 -04 37 00.5          19.1 R ET111H01
     K08T25V  C2008 10 10.05330 03 58 28.36 -04 58 52.5          19.2 V ET111A55
     K08T25V  C2008 10 10.05640 03 58 29.05 -04 58 59.7          19.1 V ET111A55
     K08T25V  C2008 10 10.05950 03 58 29.78 -04 59 06.7          19.1 V ET111A55
     K08T25V  C2008 10 10.06262 03 58 30.49 -04 59 14.4          19.2 V ET111A55

Observer details:
703 Catalina Sky Survey.  Observer R. E. Hill.  Measurers E. C. Beshore,
    A. Boattini, G. J. Garradd, A. R. Gibbs, A. D. Grauer, R. E. Hill,
    R. A. Kowalski, S. M. Larson, R. H. McNaught.  0.68-m Schmidt + CCD.
A55 Osservatorio Astronomico Vallemare di Borbona.  Observer V. S. Casulli.
    0.40-m f/4.5 Newtonian reflector + CCD.
H01 Magdalena Ridge Observatory, Socorro.  Observer W. H. Ryan.  2.4-m f/8.9
    reflector + CCD.

Orbital elements:
2008 TV25                                           PHA, Earth MOID = 0.0065 AU
Epoch 2008 Nov. 30.0 TT = JDT 2454800.5                 MPC
M 352.69498              (2000.0)            P               Q
n   0.38886328     Peri.  306.46405     -0.29916791     -0.95295206
a   1.8589659      Node   160.76817     +0.91600093     -0.30113968
e   0.5350415      Incl.    8.51895     +0.26728424     -0.03460153
P   2.53           H   19.8           G   0.15           U   9
Residuals in seconds of arc
081009 703  0.5+  0.8-    081009 703  0.9+  0.2-    081010 A55  0.9+  1.1-
081009 703  0.5+  1.3-    081009 703  0.4+  0.1-    081010 A55  0.6+  0.7-
081009 703  1.1+  0.2+    081009 H01  0.8+  0.6-    081010 A55  0.9+  0.0
081009 703  1.0+  0.1+    081009 H01  0.9+  0.7-    081010 A55  0.8+  0.1-
081009 703  0.4+  1.0-    081009 H01  0.9+  0.5-
081009 703  0.6+  0.3+    081009 H01  0.8+  0.6-

Ephemeris:
2008 TV25                a,e,i = 1.86, 0.54, 9                   q = 0.8643
Date    TT    R. A. (2000) Decl.     Delta      r     Elong.  Phase     V
2008 10 01    03 27.45   +00 06.2    0.385    1.304   135.5    32.6    19.7
2008 10 11    04 02.30   -05 38.1    0.297    1.224   134.3    35.7    19.1
2008 10 21    04 53.47   -14 25.5    0.229    1.147   126.6    44.2    18.6
2008 10 31    06 14.69   -26 05.1    0.186    1.072   110.6    60.1    18.4
2008 11 10    08 13.57   -35 31.0    0.177    1.004    89.4    80.4    18.9
2008 11 20    10 14.73   -36 48.0    0.202    0.946    72.1    96.2    19.7
2008 11 30    11 41.20   -33 12.5    0.249    0.900    62.9   102.9    20.3
2008 12 10    12 39.54   -29 03.8    0.308    0.872    60.0   102.2    20.7
2008 12 20    13 23.27   -25 40.5    0.372    0.864    60.6    97.3    20.8

Sonia Keys                   (C) Copyright 2008 MPC           M.P.E.C. 2008-T111

Read MPEC 2008-T110 Read MPEC 2008-T112


Our Web policy. Index to the CBAT/MPC/ICQ pages.


Valid HTML 4.01!